Regional Weather Roundup
Issued by NWS

Home | Current Version | Previous Version | Graphics & Text | Print | Product List | Glossary On
Versions: 1 2 3 4 5 6 7 8 9 10 11 12 13 14 15 16 17 18 19 20 21 22 23 24 25 26 27 28 29 30 31 32 33 34 35 36 37
000
ASUS45 KSLC 230810
RWRUT

UTAH REGIONAL WEATHER ROUNDUP
NATIONAL WEATHER SERVICE SALT LAKE CITY UT
200 AM MDT THU OCT 23 2014

UTZ001>011-023>025-230900-

NORTHERN UTAH

CITY           SKY/WX    TMP DP  RH WIND       PRES   REMARKS
BRIGHAM CITY   PTCLDY    41  32  69 CALM      30.18R
HILL AFB       CLEAR     48  26  43 E16       30.16S
LOGAN          CLEAR     34  28  79 N3        30.18R
OGDEN          PTCLDY    47  27  45 S9        30.15S
PROVO AIRPORT  CLEAR     41  30  65 S7        30.19S
SALT LAKE CITY PTCLDY    45  34  65 SE7       30.14F
VERNAL         CLEAR     42  33  70 W3        30.21R
WENDOVER       PTCLDY    43  28  56 CALM      30.16R
HEBER CITY     CLEAR     32  27  80 CALM      30.23F
WEST JORDAN    CLEAR     45  36  70 S6        30.17S

$$

UTZ012>022-026-027-230900-

SOUTHERN/CENTRAL UTAH

CITY           SKY/WX    TMP DP  RH WIND       PRES   REMARKS
BLANDING       CLEAR     47  33  57 N6        30.29R
BRYCE CANYON   CLEAR     33  25  72 W12       30.32R WCI  24
CEDAR CITY     PTCLDY    38  28  67 NE3       30.21R
DELTA          CLEAR     42  29  59 SW5       30.18R
HANKSVILLE       N/A     46  32  57 CALM      30.17S
MILFORD        CLEAR     42  28  57 S6        30.19R
MOAB/CYNLANDS  CLEAR     47  32  56 CALM      30.14S
PRICE          CLEAR     46  29  51 N9        30.21S
ST GEORGE      SUNNY     57  30  35 SE5       30.13R
KANAB            N/A     39  28  65 NE6       30.25R WCI  35

$$

REGIONAL REPORTS     COLORADO/ARIZONA

CITY           SKY/WX    TMP DP  RH WIND       PRES   REMARKS
CRAIG, CO      CLEAR     31  28  89 CALM      30.25S
GRAND JUNCTION CLEAR     46  37  71 SE12      30.18S
RIFLE          CLEAR     40  36  86 SE5       30.25R
MONTROSE       CLEAR     47  36  65 SE9       30.26R
CORTEZ         CLEAR     40  34  79 NE5       30.24F
PAGE, AZ       CLEAR     59  32  36 CALM      30.15R
GRAND CANYON   CLEAR     32  24  72 CALM      30.29R
KINGMAN        CLEAR     52  39  61 CALM      30.11S
FLAGSTAFF      CLEAR     37  30  75 CALM      30.31R

$$

REGIONAL REPORTS    NEVADA/IDAHO/WYOMING

CITY           SKY/WX    TMP DP  RH WIND       PRES   REMARKS
LAS VEGAS, NV  PTCLDY    66  28  24 S10       30.02R
ELY            CLEAR     44  20  38 S10       30.22S
ELKO           MOCLDY    36  19  50 CALM      30.12S
POCATELLO, ID  CLOUDY    52  26  36 NE3       30.11F
BURLEY         CLOUDY    56  26  31 SW16      30.07S
EVANSTON, WY   PTCLDY    39  21  48 SE7       30.23F WCI  34
ROCK SPRINGS   PTCLDY    36  23  59 S8        30.23F WCI  30
KEMMERER       PTCLDY    34  19  55 N6        30.25S WCI  29

$$



USA.gov is the U.S. government's official web portal to all federal, state and local government web resources and services.